15 daagse weersverwachting Glasgow (GB)

  • Overzicht
  • Per uur
  • 15 dagen
  • Extra
  • Vergelijk
  • Kaarten
  • Dagkaart
  • Meer »
  • Info
  • Statistieken
  • Directe link
    Temp 6h Neerslag Wind  
 04:33     22:05    Daglengte: 17:32 Morgen
01:00
12°
0.8 mm
4
07:00
11°
0.5 mm
5
13:00
15°
2.2 mm
7
19:00
14°
9.5 mm
6
warningclass
 04:33     22:05    Daglengte: 17:32 Dinsdag 18 Jun
01:00
11°
5.0 mm
2
07:00
12°
 
5
13:00
14°
 
6
19:00
15°
 
4
 04:33     22:05    Daglengte: 17:32 Woensdag 19 Jun
01:00
11°
 
1
07:00
11°
 
1
13:00
16°
 
3
19:00
15°
 
5
Locatie info
Region: Scotland
Latitude: 55.8578°N
Longitude: -4.2425°E
40 masl
Postcode: G1 1
Temp/Neerslag /Baro Onweer/Dauwpunt
    Temp Baro 1h Neerslag Dauwpunt Wind UV Bewolking  
 04:33     22:05    Daglengte: 17:32 Morgen
00:00
12°
1005.5 hPa
48%
10.1°
3
Windvlaag: 0.7 km/h
85%
01:00
12°
1005.3 hPa 0.8 mm
81%
10.3°
4
Windvlaag: 1.1 km/h
54%
02:00
12°
1005.6 hPa 0.5 mm
77%
9.9°
6
Windvlaag: 5.3 km/h
25%
03:00
11°
1006.0 hPa
74%
9.4°
6
Windvlaag: 5.2 km/h
51%
04:00
11°
1006.3 hPa
66%
9.3°
6
Windvlaag: 5.3 km/h
42%
05:00
11°
1006.8 hPa
63%
9.3°
6
Windvlaag: 4.8 km/h
49%
06:00
11°
1007.3 hPa
66%
9.4°
5
Windvlaag: 4.8 km/h
47%
07:00
11°
1007.6 hPa
70%
9.6°
5
Windvlaag: 4.7 km/h
62%
08:00
12°
1007.8 hPa
64%
9.6°
6
Windvlaag: 4.9 km/h
31%
09:00
13°
1007.8 hPa
77%
9.5°
6
Windvlaag: 4.7 km/h
31%
10:00
14°
1008.0 hPa
81%
9.7°
6
Windvlaag: 4.5 km/h
15%
11:00
15°
1008.0 hPa
80%
10.2°
6
Windvlaag: 4.6 km/h
30%
12:00
15°
1008.0 hPa 1.4 mm
81%
10.3°
7
Windvlaag: 4.5 km/h
34%
13:00
15°
1007.9 hPa 0.9 mm
82%
10.1°
7
Windvlaag: 4.6 km/h
29%
14:00
16°
1007.7 hPa 0.8 mm
47%
10.8°
7
Windvlaag: 5.5 km/h
43%
15:00
16°
1007.5 hPa 0.8 mm
82%
10.4°
8
Windvlaag: 5.4 km/h
58%
16:00
15°
1007.9 hPa 1.6 mm
82%
9.9°
8
Windvlaag: 5.5 km/h
57%
17:00
15°
1008.1 hPa 1.4 mm
82%
9.7°
8
Windvlaag: 6.1 km/h
63% warningclass
18:00
14°
1008.5 hPa 1.9 mm
82%
9.4°
7
Windvlaag: 5.2 km/h
62% warningclass
19:00
14°
1008.8 hPa 3.1 mm
82%
9.1°
6
Windvlaag: 4.5 km/h
57% warningclass
20:00
13°
1009.2 hPa 2.1 mm
80%
9.5°
5
Windvlaag: 3.4 km/h
34%
21:00
13°
1009.5 hPa
74%
9.5°
3
Windvlaag: 2.4 km/h
18%
22:00
12°
1010.0 hPa
62%
9.5°
2
Windvlaag: 1.5 km/h
25%
23:00
11°
1010.1 hPa
25%
9.7°
2
Windvlaag: 1.1 km/h
31%
 04:33     22:05    Daglengte: 17:32 Dinsdag 18 Jun
00:00
11°
1010.1 hPa
33%
9.9°
2
Windvlaag: 1.3 km/h
32%
01:00
11°
1010.0 hPa 2.9 mm
73%
10.0°
2
Windvlaag: 2.9 km/h
34%
02:00
11°
1009.9 hPa
77%
9.6°
3
Windvlaag: 3.7 km/h
17%
03:00
11°
1009.8 hPa
75%
9.4°
3
Windvlaag: 3.7 km/h
12%
04:00
11°
1009.7 hPa
70%
9.4°
4
Windvlaag: 3.7 km/h
19%
05:00
10°
1009.8 hPa
73%
9.3°
4
Windvlaag: 3.8 km/h
34%
06:00
11°
1009.7 hPa
70%
9.5°
4
Windvlaag: 3.9 km/h
49%
07:00
12°
1009.8 hPa
69%
9.4°
5
Windvlaag: 4.1 km/h
24%
08:00
12°
1009.9 hPa
28%
9.3°
6
Windvlaag: 4.5 km/h
25%
09:00
13°
1010.0 hPa
14%
8.8°
6
Windvlaag: 4.6 km/h
23%
10:00
13°
1010.1 hPa
17%
8.0°
6
Windvlaag: 4.4 km/h
31%
11:00
14°
1010.1 hPa
36%
8.1°
7
Windvlaag: 4.3 km/h
51%
12:00
14°
1010.3 hPa
81%
8.5°
7
Windvlaag: 4.2 km/h
59%
13:00
14°
1010.3 hPa
80%
8.8°
6
Windvlaag: 4.2 km/h
73%
14:00
15°
1010.3 hPa
72%
8.7°
6
Windvlaag: 4 km/h
62%
15:00
15°
1010.3 hPa
75%
8.7°
6
Windvlaag: 3.3 km/h
51%
16:00
15°
1010.1 hPa
67%
9.4°
6
Windvlaag: 2.9 km/h
40%
17:00
15°
1010.0 hPa
61%
9.4°
5
Windvlaag: 2.5 km/h
33%
18:00
15°
1010.0 hPa
62%
9.8°
5
Windvlaag: 2.6 km/h
44%
19:00
15°
1010.1 hPa
65%
9.9°
4
Windvlaag: 2.2 km/h
44%
20:00
14°
1010.2 hPa
76%
9.9°
4
Windvlaag: 2.3 km/h
38%
21:00
13°
1010.4 hPa
77%
9.9°
3
Windvlaag: 2.2 km/h
48%
22:00
12°
1010.3 hPa
97%
10.1°
2
Windvlaag: 1.7 km/h
79%
23:00
11°
1010.2 hPa
90%
9.9°
2
Windvlaag: 1.5 km/h
90%
 04:33     22:05    Daglengte: 17:32 Woensdag 19 Jun
00:00
11°
1009.9 hPa
93%
10.1°
1
Windvlaag: 1.1 km/h
78%
01:00
11°
1009.6 hPa
81%
10.1°
1
Windvlaag: 1.4 km/h
60%
02:00
10°
1009.3 hPa
77%
9.8°
1
Windvlaag: 1.2 km/h
79%
03:00
10°
1008.8 hPa
29%
10.0°
1
Windvlaag: 1.2 km/h
64%
04:00
10°
1008.5 hPa
26%
9.9°
1
Windvlaag: 1.1 km/h
61%
05:00
10°
Voelt als: 9.3°
1008.3 hPa
80%
9.4°
2
Windvlaag: 1 km/h
82%
06:00
10°
1008.2 hPa
80%
9.7°
1
Windvlaag: 1 km/h
80%
07:00
11°
1008.0 hPa
27%
9.8°
1
Windvlaag: 1.1 km/h
66%
08:00
12°
1007.7 hPa
28%
9.9°
2
Windvlaag: 0.2 km/h
61%
09:00
14°
1007.4 hPa
29%
10.6°
1
Windvlaag: 0.2 km/h
51%
10:00
15°
1007.1 hPa
25%
11.1°
2
Windvlaag: 0.2 km/h
51%
11:00
15°
1006.8 hPa
22%
11.5°
2
Windvlaag: 0.4 km/h
52%
12:00
16°
1006.6 hPa
67%
10.9°
2
Windvlaag: 0.4 km/h
47%
13:00
16°
1006.1 hPa
25%
10.2°
3
Windvlaag: 0.4 km/h
55%
14:00
17°
1005.8 hPa
68%
8.7°
4
Windvlaag: 0.5 km/h
41%
15:00
17°
1005.5 hPa
65%
8.3°
4
Windvlaag: 0.6 km/h
30%
16:00
17°
1005.2 hPa
25%
8.5°
5
Windvlaag: 0.7 km/h
44%
17:00
17°
1004.8 hPa
30%
8.6°
5
Windvlaag: 0.8 km/h
60%
18:00
16°
1004.6 hPa
22%
9.2°
5
Windvlaag: 0.9 km/h
25%
19:00
15°
1004.8 hPa
70%
9.7°
5
Windvlaag: 0.8 km/h
59%
20:00
15°
1004.9 hPa
29%
9.5°
5
Windvlaag: 6.2 km/h
59%
21:00
14°
1005.1 hPa
69%
9.3°
4
Windvlaag: 6.1 km/h
50%
22:00
13°
1005.3 hPa
23%
9.0°
4
Windvlaag: 7.2 km/h
60%
23:00
12°
1005.4 hPa
21%
8.8°
3
Windvlaag: 4.9 km/h
73%
Temp/Neerslag /Baro Onweer/Dauwpunt
    Temp Baro Neerslag Dauwpunt Wind Bewolking  
 04:33     22:05    Daglengte: 17:32 Morgen
01:00
12°
1005.3 hPa 0.8 mm 10.3°
4
54%
04:00
11°
1006.3 hPa 0.5 mm 9.3°
6
42%
07:00
11°
1007.6 hPa   9.6°
5
62%
10:00
14°
1008.0 hPa   9.7°
6
15%
13:00
15°
1007.9 hPa 2.2 mm 10.1°
7
29%
16:00
15°
1007.9 hPa 3.1 mm 9.9°
8
57%
19:00
14°
1008.8 hPa 6.4 mm 9.1°
6
57% warningclass
22:00
12°
1010.0 hPa 2.1 mm 9.5°
2
25%
 04:33     22:05    Daglengte: 17:32 Dinsdag 18 Jun
01:00
11°
1010.0 hPa 2.9 mm 10.0°
2
34%
04:00
11°
1009.7 hPa   9.4°
4
19%
07:00
12°
1009.8 hPa   9.4°
5
24%
10:00
13°
1010.1 hPa   8.0°
6
31%
13:00
14°
1010.3 hPa   8.8°
6
73%
16:00
15°
1010.1 hPa   9.4°
6
40%
19:00
15°
1010.1 hPa   9.9°
4
44%
22:00
12°
1010.3 hPa   10.1°
2
79%
 04:33     22:05    Daglengte: 17:32 Woensdag 19 Jun
01:00
11°
1009.6 hPa   10.1°
1
60%
04:00
10°
1008.5 hPa   9.9°
1
61%
07:00
11°
1008.0 hPa   9.8°
1
66%
10:00
15°
1007.1 hPa   11.1°
2
51%
13:00
16°
1006.1 hPa   10.2°
3
55%
16:00
17°
1005.2 hPa   8.5°
5
44%
19:00
15°
1004.8 hPa   9.7°
5
59%
22:00
13°
1005.3 hPa   9.0°
4
60%
 04:33     22:06    Daglengte: 17:33 Donderdag 20 Jun
01:00
11°
1005.5 hPa   8.7°
3
59%
04:00
10°
1006.0 hPa 10.6 mm 8.3°
3
57%
07:00
10°
1006.1 hPa 10.7 mm 8.3°
4
39%
10:00
12°
1006.8 hPa 11.1 mm 8.3°
5
38%
13:00
14°
1007.5 hPa 11.8 mm 8.1°
6
37%
16:00
13°
1008.1 hPa 12.7 mm 8.2°
6
36%
19:00
12°
1008.8 hPa 13.3 mm 8.3°
6
35%
22:00
11°
1010.2 hPa 13.5 mm 7.8°
4
37%
 04:33     22:06    Daglengte: 17:33 Vrijdag 21 Jun
01:00
Voelt als: 7.0°
1011.7 hPa 13.5 mm 7.2°
3
38%
04:00
Voelt als: 7.3°
1012.3 hPa 13.5 mm 7.4°
4
61%
07:00
10°
Voelt als: 8.0°
1013.0 hPa 13.7 mm 7.9°
4
84%
10:00
12°
1013.9 hPa 14.3 mm 8.1°
5
66%
13:00
13°
1014.7 hPa 14.3 mm 8.1°
5
49%
16:00
13°
1015.7 hPa 14.3 mm 7.2°
5
42%
19:00
13°
1016.6 hPa 14.5 mm 6.3°
5
34%
22:00
10°
Voelt als: 8.1°
1018.1 hPa 14.5 mm 6.1°
3
17%
 04:34     22:06    Daglengte: 17:32 Zaterdag 22 Jun
01:00
Voelt als: 5.7°
1019.4 hPa 14.5 mm 5.5°
2
0%
04:00
Voelt als: 7.6°
1019.9 hPa 14.5 mm 6.3°
1
6%
07:00
Voelt als: 9.1°
1020.4 hPa 14.5 mm 7.3°
1
11%
10:00
13°
1020.3 hPa 14.5 mm 8.0°
1
39%
13:00
17°
1020.2 hPa 14.5 mm 7.7°
2
67%
16:00
16°
1020.1 hPa 14.5 mm 8.8°
2
78%
19:00
15°
1020.0 hPa 14.5 mm 9.8°
2
89%
22:00
14°
1020.5 hPa 14.5 mm 9.6°
2
90%
 04:34     22:06    Daglengte: 17:32 Zondag 23 Jun
01:00
13°
1020.8 hPa 14.5 mm 9.3°
2
91%
04:00
12°
1020.7 hPa 14.5 mm 9.5°
3
91%
07:00
12°
1020.6 hPa 14.5 mm 9.9°
3
91%
10:00
16°
1020.3 hPa 14.5 mm 9.5°
4
89%
13:00
19°
1019.9 hPa 15.2 mm 7.9°
4
86%
16:00
17°
1019.9 hPa 16.8 mm 9.3°
5
84%
19:00
15°
1019.9 hPa 18.7 mm 10.4°
5
82%
22:00
13°
1020.4 hPa   10.3°
5
86%
 04:34     22:06    Daglengte: 17:32 Maandag 24 Jun
01:00
12°
1020.9 hPa 42.1 mm 10.2°
4
91%
07:00
12°
1020.9 hPa 43.0 mm 9.9°
5
55%
13:00
15°
1022.1 hPa 43.1 mm 8.6°
6
89%
19:00
15°
1022.9 hPa 45.0 mm 8.2°
5
59%
 04:35     22:06    Daglengte: 17:31 Dinsdag 25 Jun
01:00
Voelt als: 8.0°
1025.3 hPa 47.3 mm 8.0°
2
65%
07:00
10°
1026.5 hPa 47.6 mm 8.5°
2
18%
13:00
17°
1026.5 hPa 48.4 mm 6.0°
4
89%
19:00
17°
1027.3 hPa 49.0 mm 9.8°
3
5%
 04:35     22:06    Daglengte: 17:31 Woensdag 26 Jun
01:00
Voelt als: 8.0°
1029.8 hPa 49.6 mm 6.7°
2
1%
07:00
10°
1029.6 hPa 49.6 mm 7.2°
1
0%
13:00
18°
1027.4 hPa 49.6 mm 8.7°
2
52%
19:00
16°
1021.3 hPa 0.9 mm 11.8°
2
58%
 04:36     22:06    Daglengte: 17:30 Donderdag 27 Jun
01:00
11°
1020.2 hPa 0.7 mm 9.7°
1
62%
07:00
12°
1017.9 hPa 1.1 mm 10.5°
1
60%
13:00
16°
1017.0 hPa 0.8 mm 11.7°
2
62%
19:00
16°
1015.9 hPa 0.8 mm 11.7°
2
62%
 04:36     22:06    Daglengte: 17:30 Vrijdag 28 Jun
01:00
10°
1015.8 hPa 0.8 mm 9.3°
1
48%
07:00
11°
1014.7 hPa 0.7 mm 10.0°
1
47%
13:00
16°
1014.8 hPa 0.5 mm 11.2°
2
56%
19:00
15°
1014.3 hPa 1.1 mm 11.3°
2
61%
 04:37     22:05    Daglengte: 17:28 Zaterdag 29 Jun
01:00
10°
Voelt als: 9.2°
1014.7 hPa 0.5 mm 8.5°
1
47%
07:00
11°
1013.7 hPa 0.4 mm 9.9°
2
49%
13:00
16°
1013.6 hPa 0.7 mm 10.7°
3
59%
19:00
15°
1013.2 hPa 0.8 mm 11.1°
3
57%
 04:38     22:05    Daglengte: 17:27 Zondag 30 Jun
01:00
10°
Voelt als: 9.2°
1013.4 hPa 0.7 mm 8.6°
2
47%
07:00
11°
1012.9 hPa 0.8 mm 9.7°
2
52%
13:00
16°
1013.1 hPa 0.8 mm 11.1°
3
63%
19:00
15°
1013.1 hPa 0.8 mm 10.9°
3
59%
 04:39     22:05    Daglengte: 17:26 Maandag 01 Jul
01:00
10°
Voelt als: 9.4°
1013.8 hPa 0.5 mm 8.6°
2
46%
07:00
11°
1013.5 hPa 0.3 mm 9.5°
1
49%
13:00
16°
1013.7 hPa 0.5 mm 11.2°
2
59%
19:00
16°
1013.1 hPa 1.0 mm 11.1°
3
55%
  CAPE Lifted Index Hail Supercell Tornado SRH 3km CL BTM PRES CL TOP PRES Swiss DWD icon SMHI TS
 04:33     22:05    Daglengte: 17:32 Morgen
00:00 149 J/kg -0.9 K 0 % 0 % 0 % 0 m²/s² 0 0 0.54 95
01:00 181 J/kg 0.0 K 0 % 0 % 0 % 0 m²/s² 0 0 1.47 80
02:00 36 J/kg 1.7 K 0 % 0 % 0 % 0 m²/s² 0 0 4.64 80
03:00 30 J/kg 2.2 K 0 % 0 % 0 % 0 m²/s² 0 0 5.29 3
04:00 5 J/kg 2.4 K 0 % 0 % 0 % 0 m²/s² 0 0 5.25 3
05:00 0 J/kg 2.0 K 0 % 0 % 0 % 0 m²/s² 0 0 3.95 3
06:00 11 J/kg 1.8 K 0 % 0 % 0 % 0 m²/s² 0 0 3.63 3
07:00 47 J/kg 2.0 K 0 % 0 % 0 % 0 m²/s² 0 0 3.95 3
08:00 103 J/kg 1.4 K 0 % 0 % 0 % 0 m²/s² 0 0 3.8 3
09:00 116 J/kg 1.1 K 0 % 0 % 0 % 0 m²/s² 0 0 3.65 3
10:00 114 J/kg 0.8 K 0 % 0 % 0 % 0 m²/s² 0 0 3.29 1
11:00 128 J/kg 0.6 K 0 % 0 % 0 % 0 m²/s² 0 0 3 2
12:00 195 J/kg -0.1 K 0 % 0 % 0 % 0 m²/s² 0 0 2.09 2
13:00 250 J/kg -0.5 K 0 % 0 % 0 % 0 m²/s² 0 0 1.69 80
14:00 326 J/kg -1.0 K 0 % 0 % 0 % 0 m²/s² 0 0 1.01 3
15:00 333 J/kg -1.3 K 0 % 0 % 0 % 0 m²/s² 0 0 0.41 3
16:00 402 J/kg -1.8 K 0 % 0 % 0 % 0 m²/s² 0 0 -1.32 80
17:00 368 J/kg -1.5 K 0 % 0 % 0 % 0 m²/s² 0 0 0.21 95
18:00 336 J/kg -1.6 K 0 % 0 % 0 % 0 m²/s² 0 0 -1.48 95
19:00 283 J/kg -1.2 K 0 % 0 % 0 % 0 m²/s² 0 0 -0.27 95
20:00 174 J/kg -0.6 K 0 % 0 % 0 % 0 m²/s² 0 0 0.39 80
21:00 142 J/kg -0.7 K 0 % 0 % 0 % 0 m²/s² 0 0 0.74 80
22:00 6 J/kg 0.3 K 0 % 0 % 0 % 0 m²/s² 0 0 2.37 2
23:00 0 J/kg 0.9 K 0 % 0 % 0 % 0 m²/s² 0 0 2.07 2
 04:33     22:05    Daglengte: 17:32 Dinsdag 18 Jun
00:00 21 J/kg 0.2 K 0 % 0 % 0 % 0 m²/s² 0 0 0.77 2
01:00 55 J/kg 0.7 K 0 % 0 % 0 % 0 m²/s² 0 0 4.45 80
02:00 7 J/kg 1.6 K 0 % 0 % 0 % 0 m²/s² 0 0 6.19 80
03:00 63 J/kg 1.8 K 0 % 0 % 0 % 0 m²/s² 0 0 6.63 2
04:00 108 J/kg 1.6 K 0 % 0 % 0 % 0 m²/s² 0 0 6.43 1
05:00 51 J/kg 3.5 K 0 % 0 % 0 % 0 m²/s² 0 0 7.97 2
06:00 63 J/kg 3.9 K 0 % 0 % 0 % 0 m²/s² 0 0 8.04 2
07:00 33 J/kg 4.6 K 0 % 0 % 0 % 0 m²/s² 0 0 8.17 2
08:00 26 J/kg 4.8 K 0 % 0 % 0 % 0 m²/s² 0 0 7.44 2
09:00 20 J/kg 5.3 K 0 % 0 % 0 % 0 m²/s² 0 0 7.1 0
10:00 20 J/kg 5.8 K 0 % 0 % 0 % 0 m²/s² 0 0 7.66 3
11:00 36 J/kg 5.6 K 0 % 0 % 0 % 0 m²/s² 0 0 7.7 3
12:00 57 J/kg 5.1 K 0 % 0 % 0 % 0 m²/s² 0 0 7.56 3
13:00 75 J/kg 4.5 K 0 % 0 % 0 % 0 m²/s² 0 0 7.2 2
14:00 77 J/kg 4.4 K 0 % 0 % 0 % 0 m²/s² 0 0 7.49 80
15:00 79 J/kg 4.4 K 0 % 0 % 0 % 0 m²/s² 0 0 7.49 3
16:00 80 J/kg 4.5 K 0 % 0 % 0 % 0 m²/s² 0 0 7.95 3
17:00 109 J/kg 4.0 K 0 % 0 % 0 % 0 m²/s² 0 0 7 3
18:00 90 J/kg 3.9 K 0 % 0 % 0 % 0 m²/s² 0 0 6.03 3
19:00 40 J/kg 4.4 K 0 % 0 % 0 % 0 m²/s² 0 0 6.86 3
20:00 74 J/kg 3.8 K 0 % 0 % 0 % 0 m²/s² 0 0 6.26 3
21:00 64 J/kg 3.7 K 0 % 0 % 0 % 0 m²/s² 0 0 5.05 80
22:00 30 J/kg 4.0 K 0 % 0 % 0 % 0 m²/s² 0 0 5.29 3
23:00 10 J/kg 4.3 K 0 % 0 % 0 % 0 m²/s² 0 0 5.05 3
 04:33     22:05    Daglengte: 17:32 Woensdag 19 Jun
00:00 0 J/kg 4.8 K 0 % 0 % 0 % 0 m²/s² 0 0 5.64 3
01:00 0 J/kg 5.0 K 0 % 0 % 0 % 0 m²/s² 0 0 7.31 3
02:00 1 J/kg 4.9 K 0 % 0 % 0 % 0 m²/s² 0 0 6.37 2
03:00 1 J/kg 5.2 K 0 % 0 % 0 % 0 m²/s² 0 0 8.71 2
04:00 2 J/kg 5.3 K 0 % 0 % 0 % 0 m²/s² 0 0 8.72 3
05:00 2 J/kg 5.6 K 0 % 0 % 0 % 0 m²/s² 0 0 9.38 3
06:00 1 J/kg 5.7 K 0 % 0 % 0 % 0 m²/s² 0 0 9.69 3
07:00 1 J/kg 5.8 K 0 % 0 % 0 % 0 m²/s² 0 0 10 3
08:00 0 J/kg 6.1 K 0 % 0 % 0 % 0 m²/s² 0 0 10.51 3
09:00 2 J/kg 6.0 K 0 % 0 % 0 % 0 m²/s² 0 0 10.53 3
10:00 4 J/kg 5.5 K 0 % 0 % 0 % 0 m²/s² 0 0 10.15 3
11:00 22 J/kg 4.9 K 0 % 0 % 0 % 0 m²/s² 0 0 9.67 3
12:00 64 J/kg 4.3 K 0 % 0 % 0 % 0 m²/s² 0 0 9.19 3
13:00 96 J/kg 3.7 K 0 % 0 % 0 % 0 m²/s² 0 0 8.86 3
14:00 97 J/kg 3.7 K 0 % 0 % 0 % 0 m²/s² 0 0 8.86 3
15:00 65 J/kg 4.4 K 0 % 0 % 0 % 0 m²/s² 0 0 8.81 3
16:00 26 J/kg 4.9 K 0 % 0 % 0 % 0 m²/s² 0 0 8.23 3
17:00 18 J/kg 5.2 K 0 % 0 % 0 % 0 m²/s² 0 0 7.93 3
18:00 83 J/kg 3.9 K 0 % 0 % 0 % 0 m²/s² 0 0 5.52 2
19:00 118 J/kg 3.6 K 0 % 0 % 0 % 0 m²/s² 0 0 4.23 2
20:00 57 J/kg 4.5 K 0 % 0 % 0 % 0 m²/s² 0 0 5.13 3
21:00 14 J/kg 5.0 K 0 % 0 % 0 % 0 m²/s² 0 0 5.57 1
22:00 10 J/kg 5.2 K 0 % 0 % 0 % 0 m²/s² 0 0 5.86 1
23:00 0 J/kg 5.9 K 0 % 0 % 0 % 0 m²/s² 0 0 6.47 3
Temp Baro Wind Neerslag
  EWN Forecast EWN WRFDA DWD ICON FMI HIRLAM MET Norway GFS
 04:33     22:05    Daglengte: 17:32 Morgen
01:00 12.2° 1005.3 hPa 3.7 m/s 0.8 mm 12.4° 1004.9 hPa 6.2 m/s 2.8 mm 12.1° 1005.9 hPa 2.7 m/s 1.1 mm 12.8° 1005.2 hPa 2.4 m/s 0.0 mm 12.3° 1004.9 hPa 6.1 m/s 7.2 mm 11.6° 1006.2 hPa 4.4 m/s
04:00 10.9° 1006.3 hPa 6.0 m/s 0.5 mm 10.6° 1005.8 hPa 5.1 m/s 4.6 mm 11.4° 1006.5 hPa 5.0 m/s 0.5 mm 12.7° 1004.8 hPa 6.4 m/s 0.0 mm 10.6° 1006.5 hPa 6.0 m/s 0.0 mm 10.1° 1006.5 hPa 5.1 m/s
07:00 11.5° 1007.6 hPa 4.6 m/s 0.0 mm 11.2° 1006.4 hPa 6.1 m/s 4.9 mm 11.2° 1007.6 hPa 4.4 m/s 0.1 mm 13.1° 1006.4 hPa 4.0 m/s 0.0 mm 11.6° 1007.8 hPa 4.3 m/s 0.0 mm 10.5° 1007.4 hPa 5.7 m/s
10:00 13.5° 1008.0 hPa 6.0 m/s 0.0 mm 13.7° 1007.0 hPa 7.4 m/s 5.7 mm 13.5° 1008.4 hPa 5.6 m/s 0.3 mm 13.3° 1008.0 hPa 6.4 m/s 0.0 mm 14.2° 1007.7 hPa 5.1 m/s 0.0 mm 12.3° 1008.1 hPa 5.6 m/s
13:00 15.3° 1007.9 hPa 7.1 m/s 2.2 mm 16.1° 1006.4 hPa 7.5 m/s 6.0 mm 15.8° 1007.9 hPa 5.9 m/s 0.3 mm 15.7° 1008.9 hPa 7.3 m/s 0.0 mm 14.9° 1007.7 hPa 7.1 m/s 3.9 mm 15.4° 1007.6 hPa 7.5 m/s
16:00 15.0° 1007.9 hPa 8.0 m/s 3.1 mm 15.6° 1006.6 hPa 8.5 m/s 8.2 mm 15.1° 1007.8 hPa 6.8 m/s 1.2 mm 14.9° 1009.4 hPa 6.7 m/s 0.0 mm 15.4° 1007.3 hPa 9.2 m/s 3.4 mm 15.6° 1007.8 hPa 8.1 m/s
19:00 13.7° 1008.8 hPa 5.6 m/s 6.4 mm 13.0° 1007.4 hPa 5.2 m/s 22.3 mm 13.5° 1008.5 hPa 4.4 m/s 3.2 mm 14.8° 1009.8 hPa 5.5 m/s 0.0 mm 14.0° 1008.8 hPa 5.8 m/s 0.5 mm 13.7° 1008.3 hPa 5.5 m/s
22:00 11.8° 1010.0 hPa 2.5 m/s 2.1 mm 11.5° 1008.3 hPa 3.3 m/s 40.1 mm 12.0° 1010.0 hPa 2.2 m/s 0.7 mm 14.1° 1010.4 hPa 3.6 m/s 0.0 mm 11.6° 1010.1 hPa 2.1 m/s 0.0 mm 10.9° 1009.9 hPa 2.6 m/s
 04:33     22:05    Daglengte: 17:32 Dinsdag 18 Jun
01:00 11.2° 1010.0 hPa 2.5 m/s 2.9 mm 11.6° 1008.4 hPa 3.4 m/s 40.3 mm 10.9° 1010.0 hPa 1.7 m/s 0.3 mm 13.5° 1010.4 hPa 3.2 m/s 0.0 mm 9.6° 1010.3 hPa 1.6 m/s 0.0 mm 9.3° 1010.2 hPa 2.3 m/s
04:00 10.6° 1009.7 hPa 3.6 m/s 0.0 mm 11.4° 1008.0 hPa 3.9 m/s 40.5 mm 10.4° 1009.8 hPa 2.0 m/s 0.8 mm 13.0° 1010.5 hPa 3.9 m/s 0.0 mm 10.2° 1009.9 hPa 3.2 m/s 0.0 mm 9.1° 1009.5 hPa 3.3 m/s
07:00 11.6° 1009.8 hPa 4.7 m/s 0.0 mm 11.1° 1008.3 hPa 5.7 m/s 41.1 mm 11.6° 1009.3 hPa 4.6 m/s 0.2 mm 12.9° 1011.2 hPa 3.9 m/s 0.0 mm 11.7° 1010.1 hPa 4.5 m/s 0.0 mm 10.4° 1009.1 hPa 5.7 m/s
10:00 13.1° 1010.1 hPa 6.3 m/s 0.0 mm 12.6° 1008.6 hPa 7.0 m/s 41.3 mm 12.6° 1009.9 hPa 6.7 m/s 0.0 mm 15.0° 1011.5 hPa 4.9 m/s 0.0 mm 13.7° 1010.2 hPa 6.0 m/s 0.0 mm 11.7° 1009.6 hPa 6.9 m/s
13:00 14.2° 1010.3 hPa 6.4 m/s 0.0 mm 15.0° 1008.7 hPa 6.7 m/s 41.3 mm 13.7° 1010.0 hPa 5.9 m/s 0.1 mm 16.4° 1011.2 hPa 6.1 m/s 0.0 mm 14.1° 1010.6 hPa 6.3 m/s 0.3 mm 13.6° 1010.3 hPa 6.4 m/s
16:00 15.2° 1010.1 hPa 5.5 m/s 0.0 mm 15.4° 1008.8 hPa 5.3 m/s 41.4 mm 15.1° 1009.9 hPa 5.4 m/s 0.2 mm 16.6° 1011.3 hPa 6.0 m/s 0.0 mm 15.2° 1010.2 hPa 5.4 m/s 0.0 mm 15.8° 1010.2 hPa 5.6 m/s
19:00 14.6° 1010.1 hPa 4.1 m/s 0.0 mm 13.3° 1008.5 hPa 4.5 m/s 42.9 mm 14.7° 1010.1 hPa 3.4 m/s 0.1 mm 15.3° 1011.8 hPa 4.9 m/s 0.0 mm 14.7° 1010.0 hPa 3.5 m/s 0.4 mm 15.0° 1009.9 hPa 4.4 m/s
22:00 12.1° 1010.3 hPa 1.9 m/s 0.0 mm 12.9° 1008.9 hPa 3.0 m/s 45.3 mm 12.4° 1010.5 hPa 1.8 m/s 0.4 mm 12.1° 1010.5 hPa 1.3 m/s 0.0 mm 11.6° 1010.6 hPa 2.0 m/s
 04:33     22:05    Daglengte: 17:32 Woensdag 19 Jun
01:00 10.7° 1009.6 hPa 1.3 m/s 0.0 mm 10.6° 1007.8 hPa 1.7 m/s 45.4 mm 11.5° 1009.7 hPa 0.5 m/s 0.2 mm 10.0° 1010.0 hPa 1.4 m/s 0.0 mm 11.0° 1009.8 hPa 1.3 m/s
04:00 10.2° 1008.5 hPa 1.4 m/s 0.0 mm 9.3° 1007.2 hPa 0.6 m/s 45.5 mm 10.9° 1008.7 hPa 0.7 m/s 0.1 mm 10.0° 1008.7 hPa 1.3 m/s 0.0 mm 10.3° 1009.0 hPa 0.9 m/s
07:00 11.2° 1008.0 hPa 1.3 m/s 0.0 mm 9.9° 1006.3 hPa 0.9 m/s 45.5 mm 11.3° 1008.5 hPa 0.8 m/s 0.1 mm 11.5° 1008.1 hPa 1.0 m/s 0.0 mm 11.6° 1007.9 hPa 0.5 m/s
10:00 14.5° 1007.1 hPa 1.7 m/s 0.0 mm 14.3° 1005.4 hPa 1.0 m/s 45.5 mm 14.2° 1007.5 hPa 1.6 m/s 0.0 mm 14.8° 1007.2 hPa 2.0 m/s 0.0 mm 15.0° 1007.5 hPa 1.2 m/s
13:00 16.2° 1006.1 hPa 3.0 m/s 0.0 mm 16.0° 1004.6 hPa 2.7 m/s 45.5 mm 16.0° 1006.1 hPa 2.3 m/s 0.0 mm 16.4° 1006.4 hPa 3.5 m/s 0.0 mm 16.8° 1006.7 hPa 3.3 m/s
16:00 16.9° 1005.2 hPa 4.6 m/s 0.0 mm 17.3° 1003.4 hPa 4.9 m/s 45.7 mm 17.2° 1005.1 hPa 3.2 m/s 0.0 mm 16.5° 1005.6 hPa 4.8 m/s 0.0 mm 17.6° 1005.5 hPa 4.4 m/s
19:00 15.3° 1004.8 hPa 4.8 m/s 0.0 mm 16.0° 1003.1 hPa 4.8 m/s 45.7 mm 16.3° 1004.6 hPa 3.5 m/s 0.0 mm 14.4° 1005.4 hPa 5.2 m/s 0.0 mm 15.3° 1004.7 hPa 4.3 m/s
22:00 12.8° 1005.3 hPa 3.9 m/s 0.0 mm 12.9° 1004.3 hPa 3.9 m/s 45.7 mm 13.2° 1005.1 hPa 2.8 m/s 0.0 mm 12.7° 1005.6 hPa 4.2 m/s 11.1° 1005.6 hPa 2.9 m/s
 04:33     22:06    Daglengte: 17:33 Donderdag 20 Jun
01:00 10.8° 1005.5 hPa 2.7 m/s 0.0 mm 9.3° 1004.0 hPa 2.6 m/s 45.7 mm 11.2° 1005.3 hPa 1.8 m/s 0.0 mm 10.9° 1005.9 hPa 3.1 m/s 9.3° 1005.0 hPa 2.4 m/s
04:00 10.2° 1006.0 hPa 3.5 m/s 10.6 mm 10.4° 1006.1 hPa 3.6 m/s 7.9° 1005.0 hPa 1.8 m/s 10.6 mm
07:00 10.2° 1006.1 hPa 3.8 m/s 10.7 mm 10.2° 1006.2 hPa 3.9 m/s 10.0° 1005.0 hPa 2.7 m/s 10.7 mm
10:00 12.0° 1006.8 hPa 4.8 m/s 11.1 mm 11.9° 1006.9 hPa 4.8 m/s 12.9° 1005.8 hPa 5.4 m/s 11.1 mm
13:00 13.7° 1007.5 hPa 5.7 m/s 11.8 mm 13.6° 1007.6 hPa 5.7 m/s 14.6° 1005.8 hPa 5.7 m/s 11.8 mm
16:00 13.1° 1008.1 hPa 5.8 m/s 12.7 mm 12.9° 1008.3 hPa 5.8 m/s 15.1° 1006.0 hPa 5.6 m/s 12.7 mm
19:00 12.4° 1008.8 hPa 5.8 m/s 13.3 mm 12.3° 1009.0 hPa 5.9 m/s 13.7° 1006.1 hPa 5.0 m/s 13.3 mm
22:00 10.5° 1010.2 hPa 4.4 m/s 13.5 mm 10.6° 1010.5 hPa 4.6 m/s 9.8° 1007.4 hPa 2.6 m/s 13.5 mm
 04:33     22:06    Daglengte: 17:33 Vrijdag 21 Jun
01:00 8.8° 1011.7 hPa 3.1 m/s 13.5 mm 8.9° 1012.0 hPa 3.2 m/s 7.9° 1008.2 hPa 2.5 m/s 13.5 mm
04:00 9.3° 1012.3 hPa 3.5 m/s 13.5 mm 9.4° 1012.6 hPa 3.6 m/s 7.2° 1009.3 hPa 2.2 m/s 13.5 mm
07:00 10.0° 1013.0 hPa 4.0 m/s 13.7 mm 10.0° 1013.2 hPa 4.1 m/s 9.9° 1010.2 hPa 3.0 m/s 13.7 mm
10:00 11.6° 1013.9 hPa 4.7 m/s 14.3 mm 11.6° 1014.0 hPa 4.7 m/s 12.7° 1011.9 hPa 4.9 m/s 14.3 mm
13:00 13.2° 1014.7 hPa 5.3 m/s 14.3 mm 13.1° 1014.9 hPa 5.3 m/s 14.4° 1013.1 hPa 5.3 m/s 14.3 mm
16:00 13.2° 1015.7 hPa 5.3 m/s 14.3 mm 13.1° 1015.8 hPa 5.2 m/s 14.3° 1014.6 hPa 5.3 m/s 14.3 mm
19:00 13.0° 1016.6 hPa 5.1 m/s 14.5 mm 13.0° 1016.7 hPa 5.2 m/s 13.2° 1015.7 hPa 3.9 m/s 14.5 mm
22:00 9.9° 1018.1 hPa 3.4 m/s 14.5 mm 9.9° 1018.1 hPa 3.5 m/s 8.8° 1017.6 hPa 2.1 m/s 14.5 mm
 04:34     22:06    Daglengte: 17:32 Zaterdag 22 Jun
01:00 6.9° 1019.4 hPa 1.8 m/s 14.5 mm 6.9° 1019.5 hPa 1.8 m/s 6.4° 1018.6 hPa 1.6 m/s 14.5 mm
04:00 7.8° 1019.9 hPa 1.1 m/s 14.5 mm 8.1° 1020.0 hPa 1.1 m/s 5.4° 1019.0 hPa 1.1 m/s 14.5 mm
07:00 9.1° 1020.4 hPa 0.5 m/s 14.5 mm 9.2° 1020.5 hPa 0.5 m/s 8.3° 1019.4 hPa 0.6 m/s 14.5 mm
10:00 13.1° 1020.3 hPa 1.1 m/s 14.5 mm 12.9° 1020.4 hPa 1.1 m/s 14.4° 1019.6 hPa 1.1 m/s 14.5 mm
13:00 16.7° 1020.2 hPa 1.9 m/s 14.5 mm 16.7° 1020.3 hPa 1.8 m/s 16.5° 1019.5 hPa 2.5 m/s 14.5 mm
16:00 16.1° 1020.1 hPa 2.0 m/s 14.5 mm 16.1° 1020.2 hPa 2.0 m/s 17.0° 1019.1 hPa 2.9 m/s 14.5 mm
19:00 15.4° 1020.0 hPa 2.2 m/s 14.5 mm 15.4° 1020.1 hPa 2.1 m/s 15.9° 1018.9 hPa 2.7 m/s 14.5 mm
22:00 13.9° 1020.5 hPa 2.0 m/s 14.5 mm 14.2° 1020.5 hPa 2.2 m/s 10.8° 1020.0 hPa 0.8 m/s 14.5 mm
 04:34     22:06    Daglengte: 17:32 Zondag 23 Jun
01:00 12.6° 1020.8 hPa 2.0 m/s 14.5 mm 13.0° 1020.9 hPa 2.2 m/s 8.8° 1020.3 hPa 0.4 m/s 14.5 mm
04:00 12.3° 1020.7 hPa 2.6 m/s 14.5 mm 12.8° 1020.8 hPa 2.8 m/s 7.9° 1020.3 hPa 0.9 m/s 14.5 mm
07:00 12.3° 1020.6 hPa 3.1 m/s 14.5 mm 12.5° 1020.6 hPa 3.3 m/s 10.5° 1020.9 hPa 1.5 m/s 14.5 mm
10:00 15.6° 1020.3 hPa 3.8 m/s 14.5 mm 15.6° 1020.2 hPa 3.9 m/s 15.5° 1021.2 hPa 2.1 m/s 14.5 mm
13:00 18.6° 1019.9 hPa 4.4 m/s 15.2 mm 18.7° 1019.8 hPa 4.6 m/s 17.3° 1021.5 hPa 2.1 m/s 15.2 mm
16:00 16.9° 1019.9 hPa 4.8 m/s 16.8 mm 16.8° 1019.8 hPa 5.2 m/s 17.7° 1021.0 hPa 0.3 m/s 16.8 mm
19:00 15.0° 1019.9 hPa 5.4 m/s 18.7 mm 14.9° 1019.8 hPa 5.8 m/s 15.7° 1021.3 hPa 1.5 m/s 18.7 mm
22:00 13.3° 1020.4 hPa 4.6 m/s 20.6 mm 13.3° 1020.2 hPa 4.8 m/s 12.8° 1022.6 hPa 1.5 m/s 20.6 mm
 04:34     22:06    Daglengte: 17:32 Maandag 24 Jun
01:00 11.7° 1020.9 hPa 3.8 m/s 21.5 mm 11.7° 1020.7 hPa 3.9 m/s 11.4° 1023.1 hPa 2.5 m/s 21.5 mm
07:00 12.3° 1020.9 hPa 5.2 m/s 21.5 mm 12.5° 1020.7 hPa 5.4 m/s 10.6° 1023.5 hPa 2.5 m/s 21.5 mm
13:00 15.3° 1022.1 hPa 5.7 m/s 21.6 mm 15.1° 1022.0 hPa 5.9 m/s 17.6° 1023.3 hPa 3.1 m/s 21.6 mm
19:00 14.6° 1022.9 hPa 4.9 m/s 23.1 mm 14.5° 1023.0 hPa 5.1 m/s 15.5° 1022.2 hPa 2.5 m/s 23.1 mm
 04:35     22:06    Daglengte: 17:31 Dinsdag 25 Jun
01:00 9.0° 1025.3 hPa 2.0 m/s 23.7 mm 8.9° 1025.6 hPa 2.0 m/s 10.4° 1022.6 hPa 2.2 m/s 23.7 mm
07:00 10.4° 1026.5 hPa 2.0 m/s 23.9 mm 10.4° 1026.9 hPa 2.0 m/s 10.1° 1021.7 hPa 2.1 m/s 23.9 mm
13:00 17.2° 1026.5 hPa 4.3 m/s 24.3 mm 17.4° 1027.0 hPa 4.5 m/s 15.0° 1020.8 hPa 2.5 m/s 24.3 mm
19:00 16.6° 1027.3 hPa 2.7 m/s 24.6 mm 16.8° 1027.9 hPa 2.7 m/s 14.2° 1020.2 hPa 3.1 m/s 24.6 mm
 04:35     22:06    Daglengte: 17:31 Woensdag 26 Jun
01:00 8.9° 1029.8 hPa 1.9 m/s 24.8 mm 9.0° 1030.6 hPa 1.9 m/s 7.7° 1020.9 hPa 1.6 m/s 24.8 mm
07:00 10.0° 1029.6 hPa 0.6 m/s 24.8 mm 10.1° 1030.5 hPa 0.5 m/s 9.1° 1019.4 hPa 1.7 m/s 24.8 mm
13:00 18.0° 1027.4 hPa 2.3 m/s 24.8 mm 18.3° 1028.3 hPa 2.2 m/s 14.3° 1017.3 hPa 2.9 m/s 24.8 mm
19:00 15.8° 1021.3 hPa 1.9 m/s 0.9 mm
 04:36     22:06    Daglengte: 17:30 Donderdag 27 Jun
01:00 10.8° 1020.2 hPa 1.1 m/s 0.7 mm
07:00 11.9° 1017.9 hPa 1.4 m/s 1.1 mm
13:00 16.3° 1017.0 hPa 2.1 m/s 0.8 mm
19:00 15.9° 1015.9 hPa 2.2 m/s 0.8 mm
 04:36     22:06    Daglengte: 17:30 Vrijdag 28 Jun
01:00 10.4° 1015.8 hPa 1.1 m/s 0.8 mm
07:00 11.4° 1014.7 hPa 1.1 m/s 0.7 mm
13:00 15.9° 1014.8 hPa 2.0 m/s 0.5 mm
19:00 15.4° 1014.3 hPa 2.4 m/s 1.1 mm
 04:37     22:05    Daglengte: 17:28 Zaterdag 29 Jun
01:00 9.6° 1014.7 hPa 1.5 m/s 0.5 mm
07:00 11.3° 1013.7 hPa 1.9 m/s 0.4 mm
13:00 15.7° 1013.6 hPa 3.3 m/s 0.7 mm
19:00 15.4° 1013.2 hPa 3.1 m/s 0.8 mm
 04:38     22:05    Daglengte: 17:27 Zondag 30 Jun
01:00 9.9° 1013.4 hPa 1.9 m/s 0.7 mm
07:00 11.1° 1012.9 hPa 1.7 m/s 0.8 mm
13:00 15.5° 1013.1 hPa 3.0 m/s 0.8 mm
19:00 15.3° 1013.1 hPa 3.3 m/s 0.8 mm
 04:39     22:05    Daglengte: 17:26 Maandag 01 Jul
01:00 9.8° 1013.8 hPa 1.5 m/s 0.5 mm
07:00 11.1° 1013.5 hPa 1.3 m/s 0.3 mm
13:00 15.9° 1013.7 hPa 2.3 m/s 0.5 mm
19:00 15.6° 1013.1 hPa 2.6 m/s 1.0 mm
FMI Hirlam - 7.5 km EWN WRFDA - 12 km DWD ICON - 7 km GFS - 25 km Basiskaart






























































Updatetijd (Europe/Amsterdam) Resolutie Lengte Stap
FMI Hirlam 19:00, 01:00, 07:00, 13:00 7.5 km 49h 1h
EWN WRFDA 22:15, 04:15, 10:15, 16:15 12 km 73h 1h
DWD ICON 23:45, 05:45, 11:45, 17:45 7 km 75h 1h
GFS 20:30, 02:30, 08:30, 14:30 25 km 237h 3h
30+ mm
25-30 mm
20-25 mm
15-20 mm
10-15 mm
6-10 mm
4-6 mm
2-4 mm
1-2 mm
0.5-1 mm
0.2-0.5 mm
0.1-0.2 mm
30+ mm
25-30 mm
20-25 mm
15-20 mm
10-15 mm
6-10 mm
4-6 mm
2-4 mm
1-2 mm
0.5-1 mm
0.2-0.5 mm
0.1-0.2 mm
Sneeuwval
Natte sneeuw
Hagel
Vorst
30+ mm
25-30 mm
20-25 mm
15-20 mm
10-15 mm
6-10 mm
4-6 mm
2-4 mm
1-2 mm
0.5-1 mm
0.2-0.5 mm
0.1-0.2 mm
Sneeuwval
Natte sneeuw
Hagel
Vorst
Onweer
50 mm
40 mm
30 mm
26 mm
22 mm
18 mm
14 mm
10 mm
9 mm
8 mm
7 mm
6 mm
5 mm
4.5 mm
4 mm
3.5 mm
3 mm
2.5 mm
2 mm
1.5 mm
1 mm
0.8 mm
0.6 mm
0.4 mm
0.2 mm
0.05 mm
35°
30°
25°
20°
15°
10°
-5°
-10°
-15°
-20°
-25°
-30°
-35°
120> km/h
105 km/h
90 km/h
75 km/h
60 km/h
50 km/h
40 km/h
30 km/h
20 km/h
10 km/h
0 km/h
2600 J/kg
2400 J/kg
2200 J/kg
2000 J/kg
1800 J/kg
1600 J/kg
1400 J/kg
1200 J/kg
1000 J/kg
800 J/kg
600 J/kg
400 J/kg
200 J/kg
70 dBZ
65 dBZ
60 dBZ
55 dBZ
50 dBZ
45 dBZ
40 dBZ
35 dBZ
30 dBZ
25 dBZ
20 dBZ
15 dBZ
10 dBZ
5 dBZ
-1 K
-2 K
-3 K
-4 K
-5 K
-6 K
-7 K
-8 K
-9 K
950 m²/s²
900 m²/s²
850 m²/s²
800 m²/s²
750 m²/s²
700 m²/s²
650 m²/s²
600 m²/s²
550 m²/s²
500 m²/s²
450 m²/s²
400 m²/s²
350 m²/s²
300 m²/s²
250 m²/s²
200 m²/s²
150 m²/s²
100 m²/s²
46 m/s
44 m/s
42 m/s
40 m/s
38 m/s
36 m/s
34 m/s
32 m/s
30 m/s
28 m/s
26 m/s
24 m/s
22 m/s
20 m/s
16 m/s
12 m/s
8 m/s
4 m/s
30 m/s
28 m/s
26 m/s
24 m/s
22 m/s
20 m/s
18 m/s
16 m/s
14 m/s
12 m/s
10 m/s
8 m/s
6 m/s
4 m/s
2 m/s
3.0
2.8
2.6
2.4
2.2
2.0
1.8
1.6
1.4
1.2
1.0
0.8
0.6
0.4
0.2
15
14
13
12
11
10
9
8
7
6
5
4
3
2
1
90%
80%
70%
60%
50%
40%
30%
20%
10%
42
40
38
36
34
32
30
28
26
24
22
20
18
16
14
12
90+ cm
80-90 cm
70-80 cm
60-70 cm
50-60 cm
40-50 cm
30-40 cm
20-30 cm
10-20 cm
1-10 cm
Sneeuwval
Natte sneeuw
Regen
>120 mm
115 mm
110 mm
105 mm
100 mm
95 mm
90 mm
85 mm
80 mm
75 mm
70 mm
65 mm
60 mm
55 mm
50 mm
45 mm
45 mm
40 mm
35 mm
30 mm
25 mm
20 mm
15 mm
10 mm
5 mm
0.1 mm
960 hPa
880 hPa
800 hPa
720 hPa
640 hPa